DEFOG EDJA-EDNY

Flight info

Callsign DEFOG
Flight time 0h 14m
Altitude
Route
Aircraft

Departure

Time 2026-04-30 14:55
Airport Memmingen Allgau Airport (EDJA)

Arrival

Time 2026-04-30 15:09
Airport Bodensee Airport Friedrichshafen (EDNY)
Time Latitude Longitude Altitude Speed Heading
2026-04-30 14:47 47.98625 10.23649 2071 ft 0 kts 329°
2026-04-30 14:52 47.98645 10.23635 2071 ft 4 kts 350°
2026-04-30 14:52 47.98652 10.23635 2071 ft 0 kts
2026-04-30 14:53 47.98658 10.23635 2071 ft 6 kts
2026-04-30 14:53 47.98704 10.23607 2072 ft 8 kts 330°
2026-04-30 14:54 47.98744 10.23604 2073 ft 0 kts 59°
2026-04-30 14:54 47.99066 10.24445 2143 ft 130 kts 59°
2026-04-30 14:55 47.99899 10.27996 3142 ft 226 kts 96°
2026-04-30 14:55 47.99093 10.29951 3259 ft 253 kts 141°
2026-04-30 14:55 47.95922 10.27744 3286 ft 314 kts 250°
2026-04-30 14:56 47.93646 10.23891 3609 ft 256 kts 164°
2026-04-30 14:56 47.90348 10.24882 3606 ft 236 kts 162°
2026-04-30 14:57 47.88782 10.25462 3703 ft 222 kts 160°
2026-04-30 14:57 47.85988 10.25377 4069 ft 211 kts 200°
2026-04-30 14:58 47.83838 10.21930 4063 ft 257 kts 237°
2026-04-30 14:58 47.82875 10.19468 4050 ft 310 kts 238°
2026-04-30 14:58 47.80923 10.14030 4674 ft 274 kts 239°
2026-04-30 14:59 47.79223 10.09250 4431 ft 264 kts 240°
2026-04-30 15:00 47.76988 10.01903 4231 ft 262 kts 244°
2026-04-30 15:00 47.75390 9.96493 4142 ft 300 kts 245°
2026-04-30 15:01 47.73829 9.91020 4342 ft 289 kts 246°
2026-04-30 15:01 47.73081 9.88308 4248 ft 282 kts 246°
2026-04-30 15:01 47.71741 9.83131 4407 ft 266 kts 250°
2026-04-30 15:02 47.71140 9.80570 4355 ft 260 kts 250°
2026-04-30 15:02 47.70541 9.78054 4268 ft 259 kts 249°
2026-04-30 15:03 47.68824 9.70522 4154 ft 254 kts 252°
2026-04-30 15:03 47.67761 9.65321 3510 ft 283 kts 256°
2026-04-30 15:04 47.67214 9.59753 3351 ft 271 kts 275°
2026-04-30 15:04 47.67592 9.51668 3315 ft 269 kts 279°
2026-04-30 15:05 47.68016 9.43840 3183 ft 257 kts 265°
2026-04-30 15:06 47.65969 9.40801 3075 ft 187 kts 176°
2026-04-30 15:06 47.64281 9.42563 2648 ft 147 kts 93°
2026-04-30 15:07 47.64823 9.45299 2150 ft 133 kts 58°
2026-04-30 15:07 47.65683 9.47460 1819 ft 114 kts 60°
2026-04-30 15:08 47.65967 9.48195 1684 ft 106 kts 55°
2026-04-30 15:08 47.66987 9.50755 1344 ft 68 kts 65°
2026-04-30 15:09 47.67168 9.51237 1355 ft 2 kts 97°
2026-04-30 15:09 47.67123 9.51236 1354 ft 4 kts 150°
2026-04-30 15:10 47.67051 9.51330 1351 ft 1 kts 142°